H1 CPF 2 isr 2024 4 16 22 107 1 irnss1f NONE
H2 1601501 3306 41384 2024 4 16 23 59 42 2024 4 23 23 44 42 900 1 1 0 0 0 1
H9
10 0 60423  21582.000000  0      35415775.155      22705425.955      -1412285.793
10 0 60423  22482.000000  0      35409206.373      22710364.991      -1546021.335
10 0 60423  23382.000000  0      35402547.236      22715689.155      -1673064.889
10 0 60423  24282.000000  0      35395873.767      22721420.514      -1792867.682
10 0 60423  25182.000000  0      35389267.455      22727572.700      -1904912.593
10 0 60423  26082.000000  0      35382813.992      22734150.207      -2008716.401
10 0 60423  26982.000000  0      35376601.902      22741147.848      -2103831.880
10 0 60423  27882.000000  0      35370721.105      22748550.400      -2189849.722
10 0 60423  28782.000000  0      35365261.433      22756332.428      -2266400.299
10 0 60423  29682.000000  0      35360311.123      22764458.303      -2333155.239
10 0 60423  30582.000000  0      35355955.317      22772882.402      -2389828.814
10 0 60423  31482.000000  0      35352274.583      22781549.511      -2436179.148
10 0 60423  32382.000000  0      35349343.504      22790395.403      -2472009.212
10 0 60423  33282.000000  0      35347229.334      22799347.591      -2497167.634
10 0 60423  34182.000000  0      35345990.766      22808326.252      -2511549.296
10 0 60423  35082.000000  0      35345676.820      22817245.296      -2515095.734
10 0 60423  35982.000000  0      35346325.873      22826013.563      -2507795.328
10 0 60423  36882.000000  0      35347964.856      22834536.143      -2489683.291
10 0 60423  37782.000000  0      35350608.620      22842715.778      -2460841.451
10 0 60423  38682.000000  0      35354259.491      22850454.338      -2421397.831
10 0 60423  39582.000000  0      35358907.020      22857654.336      -2371526.035
10 0 60423  40482.000000  0      35364527.934      22864220.466      -2311444.435
10 0 60423  41382.000000  0      35371086.287      22870061.128      -2241415.166
10 0 60423  42282.000000  0      35378533.809      22875089.921      -2161742.942
10 0 60423  43182.000000  0      35386810.457      22879227.081      -2072773.686
10 0 60423  44082.000000  0      35395845.145      22882400.831      -1974892.997
10 0 60423  44982.000000  0      35405556.651      22884548.625      -1868524.444
10 0 60423  45882.000000  0      35415854.688      22885618.273      -1754127.709
10 0 60423  46782.000000  0      35426641.118      22885568.907      -1632196.584
10 0 60423  47682.000000  0      35437811.284      22884371.794      -1503256.820
10 0 60423  48582.000000  0      35449255.453      22882010.966      -1367863.859
10 0 60423  49482.000000  0      35460860.337      22878483.664      -1226600.437
10 0 60423  50382.000000  0      35472510.664      22873800.583      -1080074.086
10 0 60423  51282.000000  0      35484090.790      22867985.914       -928914.533
10 0 60423  52182.000000  0      35495486.303      22861077.190       -773771.014
10 0 60423  53082.000000  0      35506585.614      22853124.915       -615309.507
10 0 60423  53982.000000  0      35517281.498      22844192.016       -454209.912
10 0 60423  54882.000000  0      35527472.565      22834353.086       -291163.161
10 0 60423  55782.000000  0      35537064.632      22823693.466       -126868.304
10 0 60423  56682.000000  0      35545971.985      22812308.154         37970.452
10 0 60423  57582.000000  0      35554118.498      22800300.571        202646.709
10 0 60423  58482.000000  0      35561438.600      22787781.199        366454.858
10 0 60423  59382.000000  0      35567878.072      22774866.116        528693.052
10 0 60423  60282.000000  0      35573394.665      22761675.445        688666.163
10 0 60423  61182.000000  0      35577958.521      22748331.748        845688.712
10 0 60423  62082.000000  0      35581552.407      22734958.385        999087.754
10 0 60423  62982.000000  0      35584171.735      22721677.866       1148205.721
10 0 60423  63882.000000  0      35585824.400      22708610.229       1292403.196
10 0 60423  64782.000000  0      35586530.407      22695871.450       1431061.617
10 0 60423  65682.000000  0      35586321.317      22683571.938       1563585.892
10 0 60423  66582.000000  0      35585239.517      22671815.115       1689406.934
10 0 60423  67482.000000  0      35583337.320      22660696.113       1807984.072
10 0 60423  68382.000000  0      35580675.918      22650300.611       1918807.362
10 0 60423  69282.000000  0      35577324.202      22640703.828       2021399.770
10 0 60423  70182.000000  0      35573357.479      22631969.677       2115319.220
10 0 60423  71082.000000  0      35568856.092      22624150.114       2200160.501
10 0 60423  71982.000000  0      35563903.979      22617284.676       2275557.026
10 0 60423  72882.000000  0      35558587.200      22611400.211       2341182.431
10 0 60423  73782.000000  0      35552992.438      22606510.821       2396752.006
10 0 60423  74682.000000  0      35547205.523      22602617.998       2442023.962
10 0 60423  75582.000000  0      35541309.989      22599710.964       2476800.511
10 0 60423  76482.000000  0      35535385.694      22597767.200       2500928.769
10 0 60423  77382.000000  0      35529507.524      22596753.152       2514301.465
10 0 60423  78282.000000  0      35523744.213      22596625.110       2516857.464
10 0 60423  79182.000000  0      35518157.281      22597330.233       2508582.089
10 0 60423  80082.000000  0      35512800.128      22598807.708       2489507.250
10 0 60423  80982.000000  0      35507717.282      22600990.021       2459711.369
10 0 60423  81882.000000  0      35502943.825      22603804.314       2419319.105
10 0 60423  82782.000000  0      35498505.005      22607173.805       2368500.882
10 0 60423  83682.000000  0      35494416.030      22611019.249       2307472.213
10 0 60423  84582.000000  0      35490682.063      22615260.409       2236492.829
10 0 60423  85482.000000  0      35487298.398      22619817.512       2155865.617
99